Wind_Speed
6 5 4 7 8 9 9 6 12 9 10 8 6 11 15 16 14 5 12 11 14 13 9 9 9 7 7 5 4 3 3 2 2 3 3 4 4 5 6 8 8 6 7 7 9 10 11 12 15
4 7 5 13 9 8 10 9 12 14 14 12 9 6 10 15 14 16 14 14 14 14 12 7 10 9 9 6 5 4 2 1 1 1 3 4 6 6 8 9 10 9 9 10 13 14 16 18 17
8 8 15 6 13 7 10 8 15 13 8 5 8 12 9 10 11 12 15 15 14 14 10 13 13 12 9 8 6 4 2 1 1 1 1 2 4 7 7 8 10 12 12 14 14 13 13 13 12
5 6 8 10 15 12 12 13 14 11 7 2 8 12 9 11 9 15 16 15 14 14 13 15 13 11 9 7 5 4 4 4 3 2 2 3 3 5 6 7 8 9 10 11 11 11 11 11 11
8 15 9 8 13 12 13 12 11 12 11 8 4 9 12 9 13 16 15 14 15 14 14 13 12 10 8 7 5 4 3 3 3 3 4 4 4 4 5 5 6 7 8 9 9 10 10 10 11
14 18 7 10 12 8 8 8 3 7 8 7 7 15 12 12 16 14 14 14 13 13 11 11 10 9 7 6 6 4 3 3 3 3 3 3 4 5 5 6 6 6 7 7 8 9 9 9 9
17 10 11 14 12 11 9 4 5 6 8 6 6 10 12 15 14 14 14 13 12 10 10 8 6 7 6 6 7 5 5 4 4 4 4 5 5 6 6 5 5 7 7 8 10 11 12 11 11
8 4 11 11 10 13 7 3 5 2 13 8 3 8 15 17 16 15 14 12 11 10 9 7 5 4 3 6 6 5 5 5 5 5 6 7 8 8 8 7 7 9 10 11 13 13 14 13 13
5 6 8 6 8 8 8 8 2 2 9 2 3 9 18 18 16 14 13 12 11 10 9 7 4 4 3 3 6 6 5 6 8 10 10 10 7 8 10 12 10 11 12 12 13 14 15 15 14
11 3 11 6 5 9 8 5 7 8 9 9 8 8 16 17 16 14 13 12 11 11 9 6 5 3 4 3 3 2 2 1 2 3 5 5 6 7 9 12 15 14 13 14 15 16 15 13 8
4 9 8 5 1 9 9 4 4 5 7 9 13 12 16 16 15 14 12 11 12 11 10 8 5 3 4 2 4 2 3 3 4 6 5 6 8 7 8 9 11 12 15 10 13 14 12 11 12
5 8 5 7 5 1 6 8 4 5 12 7 6 12 15 16 15 13 13 13 12 11 9 7 6 5 2 1 2 2 2 2 2 4 7 6 6 8 8 9 10 11 11 12 12 12 13 14 13
10 9 10 9 7 2 3 5 2 7 8 7 7 10 13 14 13 13 12 11 10 9 9 8 8 8 5 3 2 3 2 2 3 3 4 5 5 7 8 10 10 12 12 12 13 14 14 14 15
8 10 8 7 6 4 7 6 8 7 7 9 10 10 12 12 12 11 11 12 11 10 9 9 9 8 6 4 4 3 3 2 1 1 1 4 6 6 8 10 11 12 13 14 15 15 16 15 15
9 9 10 8 9 5 8 9 11 7 5 8 11 12 12 12 10 10 10 11 11 10 10 9 9 10 10 6 4 3 4 4 3 3 4 5 9 9 12 11 13 14 15 18 18 19 18 18 18
11 9 11 8 8 4 10 12 11 7 5 10 10 10 12 13 12 10 10 10 10 9 7 9 10 11 10 7 6 5 5 5 5 5 6 8 10 13 15 13 15 16 19 18 19 20 20 20 21
9 10 1 8 2 2 8 5 13 1 9 12 15 16 12 13 13 11 10 9 8 8 8 9 10 9 9 7 5 7 7 6 6 8 8 10 10 14 18 19 18 19 20 22 22 23 22 23 24
6 3 4 6 7 5 9 10 5 5 7 8 9 11 11 12 15 11 6 4 4 4 3 5 7 7 8 6 6 6 7 7 9 9 10 11 11 12 15 17 21 21 21 23 24 25 25 27 28
5 5 4 4 5 6 4 6 4 4 3 5 4 4 5 8 10 6 3 4 5 5 4 4 4 7 2 4 5 7 7 9 11 11 11 11 12 15 17 18 20 22 20 21 24 25 26 28 27
3 5 1 0 3 6 3 4 5 8 8 9 10 11 11 12 11 10 12 12 11 9 7 5 3 1 1 3 4 7 9 10 11 10 11 13 15 26 28 26 26 23 23 24 24 25 27 28 27
3 7 6 9 7 10 8 8 11 9 13 14 15 15 14 12 11 10 11 10 9 9 8 5 4 3 3 3 5 6 9 11 12 13 18 20 22 21 27 26 26 23 23 23 23 24 25 29 29
9 4 8 10 8 7 12 4 8 12 10 11 11 11 10 9 8 9 8 9 8 8 7 6 5 4 5 7 5 10 9 13 17 18 20 22 25 22 20 21 21 22 22 22 22 20 22 21 28
5 7 8 8 9 10 11 9 10 11 9 9 9 9 8 7 7 8 7 7 7 7 6 5 5 7 8 10 13 12 13 16 19 18 19 19 20 21 22 22 22 23 20 18 17 17 14 14 17
7 8 6 6 5 5 2 7 13 8 8 6 9 8 6 8 6 5 5 4 5 6 6 7 8 9 11 11 12 13 15 15 17 18 20 19 21 22 22 22 21 19 16 14 15 17 15 16 17
8 7 4 3 4 2 5 6 9 8 7 7 7 7 7 8 6 5 4 4 4 6 8 9 11 13 14 14 14 15 16 17 18 20 21 23 24 25 24 21 18 15 16 16 10 7 15 21 19
5 6 3 4 3 4 6 6 7 10 10 8 6 4 5 4 3 3 4 7 9 11 12 13 14 16 17 18 18 17 18 19 20 20 23 25 25 24 21 18 15 16 15 8 10 16 19 17 12
3 4 3 2 1 3 4 6 9 11 9 5 3 3 6 5 5 6 8 10 12 13 14 14 15 19 21 21 19 18 19 19 21 22 24 25 24 23 18 15 16 10 9 13 14 13 17 16 12
6 3 4 1 3 4 2 7 4 12 9 8 4 9 9 7 7 9 13 14 14 16 15 16 19 20 19 18 18 17 19 21 22 22 23 23 21 19 18 17 15 11 11 16 21 18 13 15 15
1 1 3 4 3 4 4 4 8 5 3 5 9 11 12 8 10 13 15 14 15 15 15 19 20 19 18 17 17 19 21 21 19 19 21 19 17 16 15 13 11 14 18 21 23 16 18 15 16
4 4 5 3 4 3 4 7 7 6 2 5 11 10 8 10 13 15 16 14 18 15 20 20 17 14 15 18 20 21 20 19 19 20 17 16 16 15 15 17 19 16 20 16 15 15 14 14 16
Wind_Direction
190 198 241 247 240 244 98 91 107 118 108 68 87 17 52 31 17 53 125 115 121 128 124 154 157 131 119 123 105 114 139 171 186 206 228 240 262 259 260 267 290 293 277 278 278 279 285 291 295
203 213 230 257 252 195 112 153 146 82 97 108 95 118 52 65 74 115 118 117 119 121 120 137 115 102 92 96 98 87 80 96 139 220 253 260 269 269 267 285 293 289 291 284 279 283 289 290 292
165 219 250 230 236 164 119 166 93 108 121 121 101 56 29 85 105 102 122 120 116 115 123 119 112 104 103 93 82 75 64 34 283 253 268 268 271 283 298 289 290 296 299 300 305 312 309 306 301
191 218 250 242 79 70 122 108 126 133 132 119 112 92 83 81 100 126 123 119 121 116 124 120 114 104 93 79 64 43 20 9 4 14 3 358 325 313 305 304 303 305 308 310 314 313 311 309 302
215 238 216 122 101 97 105 118 164 170 150 128 297 93 98 102 119 122 120 124 122 123 126 116 104 97 77 60 36 9 2 8 12 12 19 13 358 349 329 320 315 314 314 315 320 323 319 317 312
228 245 152 137 120 110 107 123 149 141 110 90 97 108 87 126 131 131 126 126 127 124 118 106 102 89 70 45 27 28 13 3 0 4 5 2 4 355 343 330 327 328 326 330 337 339 335 326 318
251 231 126 115 137 141 116 153 161 123 116 90 126 119 124 138 143 138 137 135 131 131 126 121 104 76 56 38 36 33 33 41 36 24 10 357 352 342 333 327 326 325 327 332 336 338 336 334 328
304 55 119 137 167 114 121 157 86 224 65 87 345 139 159 153 149 148 145 146 147 146 144 143 125 114 63 353 36 42 47 41 25 11 4 351 348 346 350 335 343 335 330 329 331 331 331 328 326
259 179 137 137 147 138 156 141 129 65 126 207 146 74 149 156 154 153 157 160 161 160 161 160 153 104 70 67 355 28 24 27 25 18 15 27 18 351 353 313 324 323 323 324 325 325 325 324 324
257 162 83 30 63 145 163 163 129 181 147 146 139 122 142 158 162 167 172 177 176 177 176 176 155 126 90 56 48 357 337 24 33 8 1 8 332 319 327 327 328 328 319 322 321 318 322 335 335
271 86 118 144 119 157 143 136 152 159 183 145 152 152 160 171 179 187 187 188 193 189 181 185 167 158 92 16 20 358 337 334 334 352 347 337 341 333 339 323 331 327 323 338 317 315 320 279 294
98 98 139 123 150 140 167 126 171 218 93 118 140 153 165 176 188 193 195 189 186 183 181 187 197 213 207 77 347 321 342 273 346 298 350 342 345 330 326 328 320 321 310 303 311 303 297 301 297
126 122 114 134 158 151 89 162 43 176 140 154 152 162 172 180 194 199 201 200 183 183 186 198 217 221 220 268 295 315 298 299 253 347 339 357 352 334 339 328 332 323 319 314 309 303 300 295 295
129 139 135 159 165 156 238 153 213 133 186 179 179 194 186 188 192 195 193 196 195 196 201 214 229 233 223 229 263 268 290 275 301 281 297 358 358 332 336 322 320 323 319 310 300 297 294 293 289
156 161 160 188 183 153 243 199 224 135 171 195 205 212 210 198 196 190 192 201 202 210 222 228 234 236 221 230 261 274 259 254 252 264 294 323 330 319 319 311 311 312 310 309 309 304 300 296 294
197 225 191 144 178 155 245 248 136 185 210 223 208 205 216 206 204 191 189 198 212 230 240 241 238 229 223 228 247 255 254 254 254 274 294 302 306 304 308 305 301 301 301 303 300 297 292 287 285
201 229 167 148 209 280 244 325 137 189 268 260 257 217 210 221 203 199 197 210 232 250 258 249 234 227 224 239 244 256 253 258 272 275 292 287 291 291 294 301 301 297 296 295 293 291 284 283 281
123 218 176 279 121 243 251 244 33 332 281 266 224 229 224 215 201 188 201 228 244 254 252 220 209 209 221 225 264 266 268 270 280 287 285 291 302 302 302 300 300 297 293 290 288 285 285 281 278
10 296 278 112 66 299 195 265 65 32 74 117 142 177 176 171 107 112 116 90 86 80 94 133 172 214 245 261 272 275 274 274 284 282 293 306 295 305 308 306 302 298 296 289 284 286 284 282 280
290 297 75 143 127 300 207 166 96 81 75 75 100 107 116 117 109 108 89 81 80 80 80 76 88 36 349 312 301 292 285 291 288 299 289 306 294 313 312 305 305 296 292 285 282 281 282 280 277
96 332 12 315 310 261 264 177 154 108 98 94 83 81 89 107 114 94 77 75 71 70 74 78 76 52 19 357 322 314 312 302 299 288 303 301 305 304 305 309 301 292 291 289 285 280 279 281 280
296 39 307 285 269 256 207 174 153 143 116 103 98 90 90 97 91 81 81 79 76 77 76 70 63 31 5 330 335 329 320 310 301 301 297 296 305 307 305 307 301 293 292 290 290 288 278 280 282
18 321 294 280 265 276 199 258 119 157 134 113 87 72 70 73 70 71 76 76 73 67 56 41 10 349 342 334 325 320 308 303 300 302 307 310 306 302 307 305 301 298 299 294 293 283 271 273 268
298 266 240 257 249 241 94 279 148 143 106 129 92 67 60 62 69 73 75 67 43 29 10 1 347 332 323 323 318 311 311 312 311 310 311 309 304 306 306 304 296 296 295 287 265 280 289 296 296
305 292 263 212 194 270 93 269 68 98 96 70 88 86 65 63 68 67 52 12 341 335 337 335 325 323 322 317 315 316 312 310 311 313 310 311 312 311 310 305 304 299 279 280 274 271 299 305 301
357 323 2 298 335 329 145 266 129 123 119 124 110 89 49 50 51 22 345 331 329 328 321 318 322 322 318 315 311 311 312 311 312 312 313 314 313 311 312 309 296 284 284 284 314 309 315 313 300
15 32 358 231 122 249 272 133 155 157 146 144 123 339 4 345 324 326 335 331 326 322 321 316 319 317 315 311 309 309 309 311 312 314 320 320 320 318 319 302 293 297 272 277 278 296 303 290 280
351 40 253 122 294 286 287 303 348 171 200 170 324 354 325 318 312 321 320 319 318 318 320 316 313 311 312 313 311 309 311 312 314 322 322 321 322 316 308 301 302 293 285 283 295 306 289 278 280
179 197 319 313 332 295 301 309 32 40 44 0 325 332 323 321 318 320 319 315 311 308 309 312 313 310 312 312 315 315 314 314 318 320 320 318 317 314 314 311 300 282 288 290 307 299 291 288 287
326 335 314 299 306 249 311 287 66 47 26 284 302 320 316 304 317 315 317 323 317 308 311 313 313 316 315 315 315 314 313 314 313 316 309 310 310 309 308 298 288 288 297 312 314 308 307 300 297
Height
1509 1508 1509 1509 1503 1480 1483 1490 1487 1497 1500 1503 1507 1504 1505 1511 1511 1525 1531 1533 1535 1538 1538 1538 1538 1540 1541 1543 1545 1547 1546 1547 1548 1548 1547 1548 1547 1548 1550 1550 1550 1550 1552 1550 1551 1550 1548 1549 1549
1511 1510 1509 1501 1493 1484 1489 1492 1491 1496 1505 1508 1509 1509 1510 1518 1523 1529 1534 1536 1538 1540 1543 1540 1541 1543 1544 1546 1545 1547 1548 1548 1549 1549 1550 1549 1549 1549 1549 1549 1550 1550 1549 1550 1550 1548 1547 1548 1548
1507 1509 1504 1489 1476 1477 1493 1490 1497 1507 1511 1508 1512 1514 1518 1525 1529 1531 1535 1537 1540 1543 1543 1541 1544 1544 1546 1547 1547 1548 1549 1548 1549 1549 1549 1549 1549 1549 1548 1550 1550 1549 1548 1549 1548 1546 1547 1547 1546
1510 1508 1501 1486 1482 1483 1490 1496 1505 1509 1512 1512 1511 1518 1528 1529 1531 1534 1537 1538 1542 1544 1543 1544 1544 1545 1547 1548 1548 1548 1549 1550 1551 1550 1551 1549 1550 1550 1550 1550 1549 1549 1548 1548 1547 1547 1546 1545 1544
1508 1498 1485 1484 1494 1493 1495 1502 1505 1504 1509 1512 1514 1518 1528 1533 1535 1538 1540 1543 1544 1547 1545 1546 1547 1547 1550 1549 1549 1548 1548 1549 1550 1551 1549 1549 1550 1549 1549 1550 1549 1548 1548 1547 1547 1546 1546 1545 1545
1501 1488 1486 1496 1503 1503 1504 1508 1507 1506 1510 1517 1517 1522 1531 1536 1538 1540 1542 1544 1547 1548 1548 1549 1550 1550 1551 1550 1550 1549 1549 1549 1550 1550 1550 1550 1550 1549 1549 1549 1548 1548 1547 1547 1546 1545 1545 1544 1544
1499 1483 1486 1496 1507 1507 1509 1511 1509 1510 1514 1517 1522 1523 1535 1537 1540 1542 1544 1546 1548 1550 1551 1551 1551 1550 1551 1551 1550 1550 1549 1550 1550 1550 1551 1550 1550 1550 1549 1548 1548 1548 1547 1546 1545 1545 1544 1543 1543
1492 1484 1495 1499 1506 1512 1514 1514 1515 1516 1517 1523 1522 1523 1533 1537 1541 1542 1544 1546 1550 1550 1552 1553 1553 1553 1554 1551 1550 1549 1550 1551 1550 1551 1551 1551 1551 1550 1549 1548 1548 1548 1547 1546 1545 1544 1543 1542 1541
1501 1495 1499 1504 1505 1514 1516 1515 1521 1522 1523 1525 1527 1524 1531 1536 1541 1543 1546 1547 1548 1551 1552 1555 1555 1555 1555 1554 1551 1551 1552 1552 1552 1552 1552 1552 1555 1553 1551 1549 1547 1546 1545 1544 1544 1543 1542 1541 1540
1498 1491 1500 1505 1506 1510 1515 1513 1519 1520 1523 1524 1528 1532 1534 1538 1541 1543 1545 1546 1548 1551 1552 1554 1554 1554 1553 1555 1552 1554 1554 1555 1555 1555 1554 1555 1553 1552 1551 1549 1547 1545 1544 1543 1542 1541 1540 1539 1541
1497 1497 1508 1513 1512 1512 1514 1515 1520 1517 1518 1522 1525 1531 1533 1538 1540 1542 1542 1545 1548 1550 1550 1554 1553 1554 1554 1555 1555 1557 1557 1556 1556 1554 1554 1554 1553 1553 1553 1552 1550 1548 1545 1545 1543 1541 1540 1539 1537
1504 1508 1511 1515 1520 1516 1514 1516 1518 1516 1517 1522 1525 1529 1532 1535 1540 1540 1541 1544 1546 1549 1551 1555 1554 1554 1552 1555 1556 1556 1556 1555 1556 1555 1553 1554 1554 1553 1552 1551 1549 1548 1547 1545 1543 1541 1538 1536 1535
1507 1514 1515 1519 1521 1518 1519 1518 1518 1519 1522 1525 1527 1529 1532 1534 1537 1539 1542 1546 1546 1548 1550 1552 1554 1553 1553 1553 1556 1555 1555 1555 1553 1554 1553 1552 1552 1552 1550 1549 1548 1547 1545 1544 1542 1539 1536 1534 1532
1512 1515 1517 1520 1522 1521 1520 1518 1519 1520 1522 1523 1526 1528 1529 1531 1534 1540 1540 1544 1545 1547 1549 1551 1553 1553 1553 1553 1553 1554 1553 1554 1553 1553 1551 1550 1550 1549 1548 1548 1547 1545 1543 1542 1539 1536 1533 1531 1530
1515 1515 1516 1517 1518 1516 1519 1515 1515 1519 1523 1523 1525 1524 1527 1530 1533 1537 1540 1543 1545 1546 1547 1549 1551 1552 1551 1552 1553 1553 1554 1552 1553 1552 1550 1548 1548 1548 1547 1547 1545 1544 1541 1539 1536 1534 1531 1529 1527
1512 1509 1511 1515 1516 1517 1518 1506 1511 1519 1520 1519 1521 1523 1525 1527 1532 1535 1540 1542 1544 1545 1546 1548 1549 1550 1550 1552 1552 1552 1552 1551 1551 1551 1550 1548 1546 1545 1544 1543 1541 1540 1537 1535 1533 1530 1527 1525 1523
1507 1505 1508 1515 1516 1515 1514 1503 1506 1516 1519 1517 1517 1518 1522 1526 1530 1534 1539 1542 1544 1544 1545 1546 1548 1549 1550 1550 1550 1550 1549 1549 1550 1549 1548 1547 1543 1541 1539 1538 1536 1534 1532 1530 1528 1525 1523 1519 1517
1503 1508 1513 1511 1514 1514 1509 1508 1508 1517 1516 1512 1512 1515 1519 1524 1528 1534 1540 1541 1542 1541 1543 1545 1546 1548 1548 1548 1548 1548 1548 1548 1548 1547 1546 1543 1541 1539 1537 1534 1532 1529 1527 1525 1523 1520 1518 1515 1512
1510 1512 1510 1509 1515 1516 1510 1510 1514 1516 1512 1513 1514 1517 1520 1525 1530 1536 1539 1539 1540 1541 1543 1544 1546 1544 1546 1547 1548 1547 1547 1547 1545 1544 1541 1540 1538 1534 1532 1531 1529 1525 1521 1519 1516 1513 1511 1509 1508
1514 1515 1512 1513 1517 1520 1510 1508 1516 1518 1520 1518 1519 1522 1525 1531 1536 1540 1539 1538 1540 1542 1543 1545 1545 1545 1546 1546 1546 1544 1543 1544 1543 1542 1539 1537 1532 1529 1526 1524 1521 1520 1516 1512 1509 1507 1504 1502 1501
1514 1518 1521 1524 1515 1514 1513 1510 1517 1521 1522 1524 1526 1528 1531 1535 1539 1540 1540 1541 1542 1543 1545 1546 1546 1545 1543 1543 1544 1543 1543 1542 1540 1539 1537 1535 1530 1525 1519 1516 1512 1512 1510 1506 1504 1502 1499 1495 1493
1520 1523 1525 1522 1519 1511 1507 1511 1513 1516 1523 1527 1530 1533 1536 1538 1540 1541 1543 1544 1544 1544 1545 1545 1545 1545 1543 1541 1541 1540 1540 1539 1538 1534 1531 1526 1524 1521 1517 1513 1509 1506 1503 1500 1497 1496 1493 1490 1487
1522 1526 1524 1520 1516 1508 1506 1508 1512 1512 1521 1528 1533 1537 1540 1541 1541 1543 1544 1545 1545 1545 1545 1545 1545 1544 1542 1540 1538 1537 1536 1535 1532 1528 1524 1520 1520 1517 1513 1509 1505 1500 1498 1495 1491 1487 1485 1483 1480
1526 1522 1519 1516 1511 1523 1506 1512 1506 1510 1521 1529 1535 1540 1542 1542 1543 1544 1545 1545 1546 1546 1546 1545 1544 1544 1542 1540 1537 1534 1531 1528 1526 1523 1519 1517 1514 1511 1507 1503 1498 1494 1491 1489 1485 1481 1479 1476 1474
1519 1517 1523 1529 1526 1523 1513 1518 1520 1523 1527 1532 1538 1542 1543 1543 1544 1545 1546 1546 1547 1547 1545 1544 1543 1542 1540 1537 1534 1532 1529 1526 1523 1520 1516 1512 1508 1504 1500 1496 1493 1491 1485 1482 1480 1478 1477 1474 1471
1526 1525 1536 1543 1532 1520 1516 1519 1513 1525 1532 1538 1540 1543 1543 1544 1545 1545 1546 1546 1545 1544 1543 1542 1540 1538 1536 1533 1531 1528 1526 1523 1520 1516 1512 1508 1503 1498 1494 1490 1488 1485 1483 1480 1477 1475 1474 1471 1469
1526 1532 1532 1539 1549 1544 1513 1514 1522 1527 1532 1537 1539 1541 1543 1544 1545 1544 1544 1544 1543 1543 1541 1539 1537 1534 1532 1529 1526 1524 1522 1519 1516 1510 1506 1502 1498 1494 1490 1487 1484 1481 1479 1477 1475 1473 1471 1468 1467
1531 1533 1535 1532 1554 1546 1511 1515 1508 1528 1528 1530 1535 1539 1542 1542 1543 1543 1543 1543 1542 1540 1538 1536 1534 1531 1529 1526 1523 1521 1518 1515 1510 1505 1502 1498 1495 1493 1487 1484 1481 1478 1476 1475 1473 1471 1468 1465 1463
1530 1532 1536 1534 1541 1546 1543 1525 1518 1521 1526 1532 1536 1539 1541 1541 1542 1541 1541 1540 1539 1537 1535 1533 1531 1528 1525 1523 1521 1517 1514 1510 1507 1503 1500 1496 1492 1490 1486 1483 1479 1476 1474 1471 1469 1467 1464 1462 1460
1536 1535 1536 1548 1548 1545 1553 1543 1525 1528 1532 1536 1535 1538 1540 1542 1540 1540 1539 1538 1536 1534 1532 1530 1528 1525 1522 1520 1516 1513 1510 1507 1504 1501 1496 1492 1489 1487 1482 1478 1475 1473 1470 1468 1466 1463 1461 1458 1456